When you browse on this site, cookies collect data to enhance your experience and personalize the content and advertising you see.
Visit our Privacy Policy to learn more. By continuing to use the site, you agree to this use of cookies and data.
  • En España
  • Lista de países
  • Para 7 días
  • Temperatura del agua
  • Mapa Satelital
  • El tiempo en el mapa
  • Informadores
  • user-avatar
    Iniciar sesión

    Tiempo cada hora Madras

    Hoy, 19 Abril, Viernes

    Tiempo Temperatura Precipitaciones Viento Presión Humedad
    00:00 +32°C° 0 mm 4 mps 756 mmHg 80%
    01:00 +32°C° 0 mm 4 mps 755 mmHg 80%
    02:00 +30°C° 0 mm 3 mps 755 mmHg 81%
    03:00 +30°C° 0 mm 3 mps 755 mmHg 81%
    04:00 +30°C° 0 mm 4 mps 755 mmHg 81%
    05:00 +30°C° 0 mm 4 mps 755 mmHg 82%
    06:00 +32°C° 0 mm 4 mps 755 mmHg 75%
    07:00 +34°C° 0 mm 5 mps 756 mmHg 68%
    08:00 +35°C° 0 mm 5 mps 756 mmHg 61%
    09:00 +36°C° 0 mm 5 mps 756 mmHg 55%
    10:00 +39°C° 0 mm 5 mps 756 mmHg 50%
    11:00 +40°C° 0 mm 5 mps 756 mmHg 45%
    12:00 +40°C° 0 mm 6 mps 755 mmHg 45%
    13:00 +40°C° 0 mm 6 mps 754 mmHg 46%
    14:00 +41°C° 0 mm 7 mps 754 mmHg 46%
    15:00 +39°C° 0 mm 7 mps 753 mmHg 51%
    16:00 +38°C° 0 mm 7 mps 753 mmHg 56%
    17:00 +35°C° 0 mm 7 mps 753 mmHg 61%
    18:00 +34°C° 0 mm 7 mps 754 mmHg 65%
    19:00 +34°C° 0 mm 7 mps 754 mmHg 70%
    20:00 +33°C° 0 mm 7 mps 755 mmHg 74%
    21:00 +33°C° 0 mm 6 mps 755 mmHg 75%
    22:00 +33°C° 0 mm 5 mps 755 mmHg 76%
    23:00 +32°C° 0 mm 4 mps 756 mmHg 77%

    Mañana, 20 Abril, Sábado

    Tiempo Temperatura Precipitaciones Viento Presión Humedad
    00:00 +32°C° 0 mm 5 mps 755 mmHg 77%
    01:00 +32°C° 0 mm 5 mps 754 mmHg 78%
    02:00 +32°C° 0 mm 5 mps 754 mmHg 79%
    03:00 +32°C° 0 mm 5 mps 754 mmHg 79%
    04:00 +32°C° 0 mm 6 mps 754 mmHg 78%
    05:00 +32°C° 0 mm 6 mps 754 mmHg 78%
    06:00 +33°C° 0 mm 6 mps 754 mmHg 72%
    07:00 +34°C° 0 mm 5 mps 755 mmHg 67%
    08:00 +35°C° 0 mm 5 mps 756 mmHg 61%
    09:00 +36°C° 0 mm 5 mps 755 mmHg 55%
    10:00 +39°C° 0 mm 5 mps 755 mmHg 49%
    11:00 +41°C° 0 mm 5 mps 755 mmHg 42%
    12:00 +41°C° 0 mm 6 mps 754 mmHg 42%
    13:00 +41°C° 0 mm 6 mps 753 mmHg 42%
    14:00 +41°C° 0 mm 7 mps 752 mmHg 42%
    15:00 +40°C° 0 mm 7 mps 752 mmHg 48%
    16:00 +38°C° 0 mm 7 mps 752 mmHg 53%
    17:00 +36°C° 0 mm 7 mps 752 mmHg 59%
    18:00 +35°C° 0 mm 6 mps 753 mmHg 63%
    19:00 +34°C° 0 mm 6 mps 753 mmHg 66%
    20:00 +33°C° 0 mm 5 mps 754 mmHg 70%
    21:00 +33°C° 0.3 mm 5 mps 754 mmHg 71%
    22:00 +33°C° 0.3 mm 4 mps 755 mmHg 72%
    23:00 +33°C° 0.3 mm 3 mps 755 mmHg 74%

    Pasado mañana, 21 Abril, Domingo

    Tiempo Temperatura Precipitaciones Viento Presión Humedad
    00:00 +33°C° 0.1 mm 4 mps 754 mmHg 71%
    01:00 +33°C° 0.1 mm 6 mps 754 mmHg 68%
    02:00 +32°C° 0.1 mm 7 mps 753 mmHg 66%
    03:00 +32°C° 0 mm 6 mps 753 mmHg 67%
    04:00 +32°C° 0 mm 6 mps 753 mmHg 67%
    05:00 +32°C° 0 mm 5 mps 753 mmHg 68%
    06:00 +33°C° 0 mm 5 mps 754 mmHg 63%
    07:00 +34°C° 0 mm 4 mps 755 mmHg 58%
    08:00 +35°C° 0 mm 3 mps 755 mmHg 53%
    09:00 +37°C° 0 mm 3 mps 755 mmHg 48%
    10:00 +38°C° 0 mm 4 mps 755 mmHg 43%
    11:00 +40°C° 0 mm 4 mps 755 mmHg 38%
    12:00 +41°C° 0 mm 5 mps 754 mmHg 38%
    13:00 +41°C° 0 mm 6 mps 753 mmHg 38%
    14:00 +42°C° 0 mm 6 mps 752 mmHg 38%
    15:00 +40°C° 0 mm 6 mps 752 mmHg 43%
    16:00 +39°C° 0 mm 7 mps 752 mmHg 49%
    17:00 +36°C° 0 mm 7 mps 752 mmHg 55%
    18:00 +35°C° 0 mm 6 mps 752 mmHg 60%
    19:00 +35°C° 0 mm 6 mps 753 mmHg 64%
    20:00 +34°C° 0 mm 6 mps 754 mmHg 68%
    21:00 +33°C° 0 mm 5 mps 754 mmHg 70%
    22:00 +33°C° 0 mm 5 mps 754 mmHg 72%
    23:00 +33°C° 0 mm 4 mps 754 mmHg 74%

    22 Abril, Lunes

    Tiempo Temperatura Precipitaciones Viento Presión Humedad
    00:00 +33°C° 0 mm 5 mps 754 mmHg 74%
    01:00 +33°C° 0 mm 5 mps 753 mmHg 74%
    02:00 +32°C° 0 mm 5 mps 752 mmHg 75%
    03:00 +32°C° 0 mm 5 mps 753 mmHg 76%
    04:00 +32°C° 0 mm 4 mps 753 mmHg 77%
    05:00 +31°C° 0 mm 3 mps 753 mmHg 78%
    06:00 +33°C° 0 mm 4 mps 754 mmHg 72%
    07:00 +34°C° 0 mm 4 mps 755 mmHg 66%
    08:00 +35°C° 0 mm 4 mps 756 mmHg 60%
    09:00 +37°C° 0 mm 4 mps 755 mmHg 55%
    10:00 +38°C° 0 mm 4 mps 755 mmHg 50%
    11:00 +40°C° 0 mm 4 mps 755 mmHg 44%
    12:00 +40°C° 0 mm 5 mps 754 mmHg 45%
    13:00 +41°C° 0 mm 6 mps 753 mmHg 46%
    14:00 +41°C° 0 mm 6 mps 753 mmHg 46%
    15:00 +39°C° 0 mm 6 mps 753 mmHg 51%
    16:00 +38°C° 0 mm 6 mps 753 mmHg 56%
    17:00 +36°C° 0 mm 6 mps 753 mmHg 61%
    18:00 +35°C° 0 mm 6 mps 753 mmHg 64%
    19:00 +34°C° 0 mm 6 mps 754 mmHg 67%
    20:00 +34°C° 0 mm 6 mps 755 mmHg 71%
    21:00 +33°C° 0 mm 5 mps 755 mmHg 72%
    22:00 +33°C° 0 mm 4 mps 755 mmHg 73%
    23:00 +33°C° 0 mm 3 mps 755 mmHg 74%

    23 Abril, Martes

    Tiempo Temperatura Precipitaciones Viento Presión Humedad
    00:00 +33°C° 0 mm 4 mps 755 mmHg 75%
    01:00 +33°C° 0 mm 4 mps 754 mmHg 75%
    02:00 +33°C° 0 mm 4 mps 754 mmHg 75%
    03:00 +31°C° 0 mm 3 mps 754 mmHg 77%
    04:00 +31°C° 0 mm 3 mps 754 mmHg 79%
    05:00 +31°C° 0 mm 3 mps 754 mmHg 81%
    06:00 +33°C° 0 mm 4 mps 755 mmHg 75%
    07:00 +34°C° 0 mm 4 mps 756 mmHg 69%
    08:00 +35°C° 0 mm 4 mps 756 mmHg 63%
    09:00 +36°C° 0 mm 4 mps 756 mmHg 57%
    10:00 +38°C° 0 mm 4 mps 756 mmHg 50%
    11:00 +40°C° 0 mm 5 mps 755 mmHg 44%
    12:00 +40°C° 0 mm 5 mps 755 mmHg 44%
    13:00 +41°C° 0 mm 6 mps 754 mmHg 44%
    14:00 +41°C° 0 mm 7 mps 753 mmHg 44%
    15:00 +39°C° 0 mm 6 mps 753 mmHg 50%
    16:00 +38°C° 0 mm 6 mps 754 mmHg 56%
    17:00 +35°C° 0 mm 6 mps 754 mmHg 62%
    18:00 +34°C° 0 mm 6 mps 754 mmHg 66%
    19:00 +34°C° 0 mm 5 mps 755 mmHg 70%
    20:00 +33°C° 0 mm 5 mps 756 mmHg 74%
    21:00 +33°C° 0 mm 5 mps 756 mmHg 75%
    22:00 +32°C° 0 mm 4 mps 756 mmHg 76%
    23:00 +32°C° 0 mm 4 mps 756 mmHg 77%

    24 Abril, Miércoles

    Tiempo Temperatura Precipitaciones Viento Presión Humedad
    00:00 +32°C° 0 mm 4 mps 755 mmHg 77%
    01:00 +30°C° 0 mm 4 mps 755 mmHg 78%
    02:00 +30°C° 0 mm 3 mps 754 mmHg 78%
    03:00 +30°C° 0 mm 3 mps 755 mmHg 79%
    04:00 +30°C° 0 mm 3 mps 755 mmHg 80%
    05:00 +30°C° 0 mm 3 mps 755 mmHg 81%
    06:00 +32°C° 0 mm 4 mps 756 mmHg 75%
    07:00 +33°C° 0 mm 4 mps 756 mmHg 69%
    08:00 +34°C° 0 mm 5 mps 757 mmHg 63%
    09:00 +36°C° 0 mm 5 mps 757 mmHg 56%
    10:00 +37°C° 0 mm 5 mps 756 mmHg 49%
    11:00 +40°C° 0 mm 6 mps 756 mmHg 42%
    12:00 +40°C° 0 mm 6 mps 755 mmHg 42%
    13:00 +40°C° 0 mm 6 mps 754 mmHg 42%
    14:00 +40°C° 0 mm 7 mps 754 mmHg 42%
    15:00 +39°C° 0 mm 6 mps 754 mmHg 47%
    16:00 +38°C° 0 mm 6 mps 754 mmHg 53%
    17:00 +35°C° 0 mm 6 mps 754 mmHg 58%
    18:00 +34°C° 0 mm 6 mps 754 mmHg 63%
    19:00 +33°C° 0 mm 6 mps 755 mmHg 68%
    20:00 +32°C° 0 mm 6 mps 756 mmHg 72%
    21:00 +32°C° 0 mm 5 mps 756 mmHg 74%
    22:00 +32°C° 0 mm 5 mps 756 mmHg 75%
    23:00 +32°C° 0 mm 4 mps 756 mmHg 77%
    Mostrar más